Tel Aviv, Israel

10:42 AM IDT on August 31, 2016 (GMT +0300)
Ben Gurion

Weather History for LLBG - April, 2013

Change the Weather History Date:

Tuesday, April 23, 2013

  Actual Average Record
Temperature  
Mean Temperature 64 °F -  
Max Temperature 72 °F 78 °F 105 °F (1997)
Min Temperature 55 °F 60 °F 51 °F (2003)
Degree Days  
Heating Degree Days 2    
Growing Degree Days 14 (Base 50)    
Moisture  
Dew Point 53 °F    
Average Humidity 69    
Maximum Humidity 88    
Minimum Humidity 45    
Precipitation  
Precipitation 0.00 in - - ()
Sea Level Pressure  
Sea Level Pressure 30.06 in    
Wind  
Wind Speed 5 mph ()    
Max Wind Speed 13 mph    
Max Gust Speed -    
Visibility 5.9 miles    
Events      
Averages and records for this station are not official NWS values.
T = Trace of Precipitation, MM = Missing Value Source: Averaged Metar Reports

Daily Weather History Graph

Daily Weather History Graph

Search for Another Location

Airport or City:

Trip Planner

Search our weather history database for the weather conditions in past years. The results will help you decide how hot, cold, wet, or windy it might be!

Date:

Astronomy

Apr. 23, 2013 Rise Set
Actual Time 6:02 AM IDT 7:15 PM IDT
Civil Twilight 5:37 AM IDT 7:40 PM IDT
Nautical Twilight 5:06 AM IDT 8:11 PM IDT
Astronomical Twilight 4:35 AM IDT 8:42 PM IDT
Moon 4:54 PM IDT (4/23) 4:09 AM IDT (4/23)
Length of Visible Light 14h 03m
Length of Day
13h 12m
Waxing Gibbous, 92% of the Moon is Illuminated
Apr 23
Waxing Gibbous
Apr 25
Full
May 2
Last Quarter
May 10
New
May 18
First Quarter

Hourly Weather History & Observations

Time (IDT) Temp. Dew Point Humidity Pressure Visibility Wind Dir Wind Speed Gust Speed Precip Events Conditions
12:20 AM 57.2 °F 51.8 °F 82% 30.01 in - SSE 4.6 mph - N/A   Clear
12:50 AM 57.2 °F 51.8 °F 82% 30.01 in - Variable 3.5 mph - N/A   Clear
1:20 AM 57.2 °F 51.8 °F 82% 30.01 in - ESE 4.6 mph - N/A   Clear
1:50 AM 57.2 °F 51.8 °F 82% 30.01 in - Variable 3.5 mph - N/A   Clear
2:20 AM 57.2 °F 51.8 °F 82% 30.01 in 6.2 mi Variable 2.3 mph - N/A   Scattered Clouds
2:50 AM 57.2 °F 51.8 °F 82% 30.01 in 6.2 mi Variable 3.5 mph - N/A   Scattered Clouds
3:00 AM 55 °F 51 °F 82% 30.01 in 6 mi 3.5 mph - -  
3:20 AM 55.4 °F 51.8 °F 88% 30.01 in 6.2 mi Variable 3.5 mph - N/A   Scattered Clouds
3:50 AM 55.4 °F 51.8 °F 88% 30.01 in 6.2 mi Variable 1.2 mph - N/A   Partly Cloudy
4:20 AM 55.4 °F 51.8 °F 88% 30.01 in 6.2 mi Variable 1.2 mph - N/A   Partly Cloudy
4:50 AM 57.2 °F 51.8 °F 82% 30.01 in - Variable 2.3 mph - N/A   Clear
5:20 AM 55.4 °F 51.8 °F 88% 30.01 in - Variable 1.2 mph - N/A   Clear
5:50 AM 55.4 °F 51.8 °F 88% 30.01 in - Variable 2.3 mph - N/A   Clear
6:20 AM 57.2 °F 51.8 °F 82% 30.01 in 6.2 mi Variable 3.5 mph - N/A   Partly Cloudy
6:50 AM 55.4 °F 51.8 °F 88% 30.04 in 4.3 mi Variable 3.5 mph - N/A   Partly Cloudy
7:20 AM 57.2 °F 51.8 °F 82% 30.06 in 4.3 mi Variable 3.5 mph - N/A   Partly Cloudy
7:50 AM 59.0 °F 51.8 °F 77% 30.06 in 5.0 mi Variable 2.3 mph - N/A   Mostly Cloudy
8:20 AM 62.6 °F 53.6 °F 72% 30.06 in 5.0 mi Variable 1.2 mph - N/A   Mostly Cloudy
8:50 AM 64.4 °F 55.4 °F 73% 30.09 in 5.6 mi SSE 4.6 mph - N/A   Partly Cloudy
9:00 AM 63 °F 54 °F 66% 30.09 in 6 mi SSE 4.6 mph - -   Scattered Clouds
9:20 AM 64.4 °F 53.6 °F 68% 30.09 in 5.6 mi SSW 6.9 mph - N/A   Scattered Clouds
9:50 AM 68.0 °F 53.6 °F 60% 30.09 in 6.2 mi Variable 2.3 mph - N/A   Scattered Clouds
10:20 AM 68.0 °F 51.8 °F 56% 30.09 in 6.2 mi Variable 2.3 mph - N/A   Scattered Clouds
10:50 AM 71.6 °F 50.0 °F 46% 30.09 in 6.2 mi Variable 2.3 mph - N/A   Scattered Clouds
11:20 AM 71.6 °F 51.8 °F 50% 30.09 in 6.2 mi Variable 2.3 mph - N/A   Scattered Clouds
11:50 AM 71.6 °F 51.8 °F 50% 30.09 in 6.2 mi Variable 3.5 mph - N/A   Scattered Clouds
12:20 PM 69.8 °F 55.4 °F 60% 30.09 in 6.2 mi West 9.2 mph - N/A   Scattered Clouds
12:50 PM 69.8 °F 53.6 °F 56% 30.09 in 6.2 mi WNW 10.4 mph - N/A   Scattered Clouds
1:20 PM 69.8 °F 55.4 °F 60% 30.09 in 6.2 mi West 9.2 mph - N/A   Partly Cloudy
1:50 PM 69.8 °F 53.6 °F 56% 30.09 in 6.2 mi NW 11.5 mph - N/A   Scattered Clouds
2:20 PM 69.8 °F 55.4 °F 60% 30.09 in 6.2 mi WNW 11.5 mph - N/A   Partly Cloudy
2:50 PM 69.8 °F 53.6 °F 56% 30.06 in 6.2 mi WNW 10.4 mph - N/A   Partly Cloudy
3:00 PM 71 °F 54 °F 45% 30.09 in 6 mi WNW 10.4 mph - -   Scattered Clouds
3:20 PM 69.8 °F 53.6 °F 56% 30.06 in 6.2 mi NW 11.5 mph - N/A   Partly Cloudy
3:50 PM 71.6 °F 51.8 °F 50% 30.06 in - NW 12.7 mph - N/A   Clear
4:20 PM 69.8 °F 51.8 °F 53% 30.06 in - NW 11.5 mph - N/A   Clear
4:50 PM 71.6 °F 51.8 °F 50% 30.06 in - NNW 11.5 mph - N/A   Clear
5:20 PM 69.8 °F 53.6 °F 56% 30.06 in - NW 12.7 mph - N/A   Clear
5:50 PM 69.8 °F 51.8 °F 53% 30.06 in - NW 11.5 mph - N/A   Clear
6:20 PM 68.0 °F 53.6 °F 60% 30.06 in - North 11.5 mph - N/A   Clear
6:50 PM 68.0 °F 53.6 °F 60% 30.06 in - North 11.5 mph - N/A   Clear
7:20 PM 66.2 °F 55.4 °F 68% 30.06 in - North 10.4 mph - N/A   Clear
7:50 PM 66.2 °F 55.4 °F 68% 30.06 in - North 5.8 mph - N/A   Clear
8:20 PM 66.2 °F 55.4 °F 68% 30.09 in - North 5.8 mph - N/A   Clear
8:50 PM 64.4 °F 55.4 °F 73% 30.09 in - North 6.9 mph - N/A   Clear
9:00 PM 65 °F 56 °F 64% 30.11 in 6 mi North 6.9 mph - -  
9:20 PM 64.4 °F 55.4 °F 73% 30.12 in - Variable 3.5 mph - N/A   Clear
9:50 PM 62.6 °F 55.4 °F 77% 30.12 in - NNE 6.9 mph - N/A   Clear
10:20 PM 62.6 °F 55.4 °F 77% 30.12 in - North 6.9 mph - N/A   Clear
10:50 PM 62.6 °F 55.4 °F 77% 30.12 in - Variable 3.5 mph - N/A   Clear
11:20 PM 62.6 °F 55.4 °F 77% 30.12 in - North 4.6 mph - N/A   Clear
11:50 PM 62.6 °F 55.4 °F 77% 30.12 in - Variable 2.3 mph - N/A   Clear